Terminal Aerodrome Forecast
Issued by NWS Columbia, SC

Home | Current Version | Previous Version | Text Only | Print | Product List | Glossary On
Versions: 1 2 3 4 5 6 7 8 9 10 11 12 13 14 15 16 17 18 19 20 21 22 23 24 25 26 27 28 29 30 31 32 33 34 35 36 37 38 39 40 41 42 43 44 45
000
FTUS42 KCAE 260800 AAB
TAFAGS
TAF AMD
KAGS 260856Z 2609/2706 00000KT 3SM BR SCT002
      TEMPO 2610/2612 1/2SM FG VV002
     FM261300 VRB03KT P6SM SCT120
     FM261700 25007KT P6SM SCT040 SCT200
     FM262300 VRB03KT P6SM SKC=

USA.gov is the U.S. government's official web portal to all federal, state and local government web resources and services.